Year,Month,Day,Hour,Minute,Value (Times are PST for temperature in C)
2014,07,06,00,00,14.40
2014,07,06,00,01,14.40
2014,07,06,00,02,14.40
2014,07,06,00,03,14.40
2014,07,06,00,04,14.40
2014,07,06,00,05,14.40
2014,07,06,00,06,14.40
2014,07,06,00,07,14.40
2014,07,06,00,08,14.40
2014,07,06,00,09,14.40
2014,07,06,00,10,14.40
2014,07,06,00,11,14.40
2014,07,06,00,12,14.50
2014,07,06,00,13,14.50
2014,07,06,00,17,14.60
2014,07,06,00,18,14.60
2014,07,06,00,19,14.60
2014,07,06,00,20,14.60
2014,07,06,00,21,14.60
2014,07,06,00,22,14.60
2014,07,06,00,23,14.60
2014,07,06,00,24,14.60
2014,07,06,00,25,14.60
2014,07,06,00,26,14.60
2014,07,06,00,27,14.60
2014,07,06,00,28,14.60
2014,07,06,00,29,14.60
2014,07,06,00,30,14.60
2014,07,06,00,31,14.60
2014,07,06,00,32,14.60
2014,07,06,00,33,14.60
2014,07,06,00,34,14.60
2014,07,06,00,35,14.60
2014,07,06,00,36,14.60
2014,07,06,00,37,14.60
2014,07,06,00,38,14.60
2014,07,06,00,39,14.50
2014,07,06,00,40,14.50
2014,07,06,00,41,14.50
2014,07,06,00,42,14.50
2014,07,06,00,43,14.50
2014,07,06,00,44,14.50
2014,07,06,00,45,14.50
2014,07,06,00,46,14.50
2014,07,06,00,47,14.50
2014,07,06,00,48,14.50
2014,07,06,00,49,14.50
2014,07,06,00,50,14.50
2014,07,06,00,51,14.50
2014,07,06,00,52,14.50
2014,07,06,00,53,14.50
2014,07,06,00,54,14.50
2014,07,06,00,55,14.50
2014,07,06,00,56,14.50
2014,07,06,00,57,14.50
2014,07,06,00,58,14.50
2014,07,06,00,59,14.50
2014,07,06,01,00,14.50
2014,07,06,01,01,14.50
2014,07,06,01,02,14.50
2014,07,06,01,03,14.50
2014,07,06,01,04,14.50
2014,07,06,01,05,14.50
2014,07,06,01,06,14.50
2014,07,06,01,07,14.60
2014,07,06,01,08,14.60
2014,07,06,01,09,14.60
2014,07,06,01,10,14.60
2014,07,06,01,11,14.60
2014,07,06,01,12,14.60
2014,07,06,01,13,14.60
2014,07,06,01,14,14.60
2014,07,06,01,15,14.60
2014,07,06,01,16,14.60
2014,07,06,01,17,14.60
2014,07,06,01,18,14.60
2014,07,06,01,19,14.60
2014,07,06,01,20,14.60
2014,07,06,01,21,14.60
2014,07,06,01,22,14.60
2014,07,06,01,23,14.60
2014,07,06,01,24,14.60
2014,07,06,01,25,14.60
2014,07,06,01,26,14.60
2014,07,06,01,27,14.60
2014,07,06,01,28,14.60
2014,07,06,01,29,14.60
2014,07,06,01,30,14.60
2014,07,06,01,31,14.60
2014,07,06,01,32,14.60
2014,07,06,01,33,14.60
2014,07,06,01,34,14.60
2014,07,06,01,35,14.60
2014,07,06,01,36,14.60
2014,07,06,01,37,14.60
2014,07,06,01,38,14.60
2014,07,06,01,39,14.60
2014,07,06,01,40,14.60
2014,07,06,01,41,14.60
2014,07,06,01,42,14.60
2014,07,06,01,43,14.60
2014,07,06,01,44,14.60
2014,07,06,01,45,14.60
2014,07,06,01,46,14.60
2014,07,06,01,47,14.60
2014,07,06,01,48,14.60
2014,07,06,01,49,14.60
2014,07,06,01,50,14.60
2014,07,06,01,51,14.60
2014,07,06,01,52,14.60
2014,07,06,01,53,14.50
2014,07,06,01,54,14.50
2014,07,06,01,55,14.50
2014,07,06,01,56,14.50
2014,07,06,01,57,14.50
2014,07,06,01,58,14.50
2014,07,06,01,59,14.50
2014,07,06,02,00,14.50
2014,07,06,02,01,14.50
2014,07,06,02,02,14.50
2014,07,06,02,03,14.50
2014,07,06,02,04,14.50
2014,07,06,02,05,14.50
2014,07,06,02,06,14.50
2014,07,06,02,07,14.50
2014,07,06,02,08,14.50
2014,07,06,02,09,14.50
2014,07,06,02,10,14.50
2014,07,06,02,11,14.50
2014,07,06,02,12,14.50
2014,07,06,02,13,14.50
2014,07,06,02,14,14.50
2014,07,06,02,15,14.50
2014,07,06,02,16,14.50
2014,07,06,02,17,14.50
2014,07,06,02,18,14.50
2014,07,06,02,19,14.50
2014,07,06,02,20,14.50
2014,07,06,02,21,14.50
2014,07,06,02,22,14.50
2014,07,06,02,23,14.50
2014,07,06,02,24,14.50
2014,07,06,02,25,14.50
2014,07,06,02,26,14.50
2014,07,06,02,27,14.50
2014,07,06,02,28,14.50
2014,07,06,02,29,14.50
2014,07,06,02,30,14.50
2014,07,06,02,31,14.50
2014,07,06,02,32,14.50
2014,07,06,02,33,14.50
2014,07,06,02,34,14.50
2014,07,06,02,35,14.50
2014,07,06,02,36,14.50
2014,07,06,02,37,14.50
2014,07,06,02,38,14.50
2014,07,06,02,39,14.50
2014,07,06,02,40,14.50
2014,07,06,02,41,14.40
2014,07,06,02,42,14.40
2014,07,06,02,43,14.40
2014,07,06,02,44,14.40
2014,07,06,02,45,14.40
2014,07,06,02,46,14.40
2014,07,06,02,47,14.40
2014,07,06,02,48,14.50
2014,07,06,02,49,14.50
2014,07,06,02,50,14.50
2014,07,06,02,51,14.50
2014,07,06,02,52,14.50
2014,07,06,02,53,14.50
2014,07,06,02,54,14.50
2014,07,06,02,55,14.50
2014,07,06,02,56,14.50
2014,07,06,02,57,14.50
2014,07,06,02,58,14.50
2014,07,06,02,59,14.50
2014,07,06,03,00,14.50
2014,07,06,03,01,14.50
2014,07,06,03,02,14.50
2014,07,06,03,03,14.50
2014,07,06,03,04,14.50
2014,07,06,03,05,14.50
2014,07,06,03,06,14.50
2014,07,06,03,07,14.50
2014,07,06,03,08,14.50
2014,07,06,03,09,14.50
2014,07,06,03,10,14.50
2014,07,06,03,11,14.50
2014,07,06,03,12,14.50
2014,07,06,03,13,14.50
2014,07,06,03,14,14.50
2014,07,06,03,15,14.50
2014,07,06,03,16,14.50
2014,07,06,03,17,14.50
2014,07,06,03,18,14.50
2014,07,06,03,19,14.50
2014,07,06,03,20,14.50
2014,07,06,03,21,14.50
2014,07,06,03,22,14.50
2014,07,06,03,23,14.50
2014,07,06,03,24,14.50
2014,07,06,03,25,14.50
2014,07,06,03,26,14.50
2014,07,06,03,27,14.50
2014,07,06,03,28,14.50
2014,07,06,03,29,14.50
2014,07,06,03,30,14.50
2014,07,06,03,31,14.50
2014,07,06,03,32,14.50
2014,07,06,03,33,14.50
2014,07,06,03,34,14.50
2014,07,06,03,35,14.50
2014,07,06,03,36,14.50
2014,07,06,03,37,14.50
2014,07,06,03,38,14.50
2014,07,06,03,39,14.50
2014,07,06,03,40,14.50
2014,07,06,03,41,14.50
2014,07,06,03,42,14.50
2014,07,06,03,43,14.50
2014,07,06,03,44,14.40
2014,07,06,03,45,14.40
2014,07,06,03,46,14.40
2014,07,06,03,47,14.40
2014,07,06,03,48,14.40
2014,07,06,03,49,14.40
2014,07,06,03,50,14.40
2014,07,06,03,51,14.40
2014,07,06,03,52,14.40
2014,07,06,03,53,14.40
2014,07,06,03,54,14.40
2014,07,06,03,55,14.40
2014,07,06,03,56,14.40
2014,07,06,03,57,14.40
2014,07,06,03,58,14.40
2014,07,06,03,59,14.40
2014,07,06,04,00,14.40
2014,07,06,04,01,14.40
2014,07,06,04,02,14.40
2014,07,06,04,03,14.40
2014,07,06,04,04,14.40
2014,07,06,04,05,14.40
2014,07,06,04,06,14.40
2014,07,06,04,07,14.40
2014,07,06,04,08,14.40
2014,07,06,04,09,14.40
2014,07,06,04,10,14.40
2014,07,06,04,11,14.40
2014,07,06,04,12,14.40
2014,07,06,04,13,14.40
2014,07,06,04,14,14.40
2014,07,06,04,15,14.40
2014,07,06,04,16,14.40
2014,07,06,04,17,14.40
2014,07,06,04,18,14.40
2014,07,06,04,19,14.40
2014,07,06,04,20,14.40
2014,07,06,04,21,14.40
2014,07,06,04,22,14.40
2014,07,06,04,23,14.40
2014,07,06,04,24,14.40
2014,07,06,04,25,14.40
2014,07,06,04,26,14.40
2014,07,06,04,27,14.40
2014,07,06,04,28,14.40
2014,07,06,04,29,14.40
2014,07,06,04,30,14.40
2014,07,06,04,31,14.40
2014,07,06,04,32,14.40
2014,07,06,04,33,14.40
2014,07,06,04,34,14.50
2014,07,06,04,35,14.40
2014,07,06,04,36,14.40
2014,07,06,04,37,14.40
2014,07,06,04,38,14.40
2014,07,06,04,39,14.40
2014,07,06,04,40,14.40
2014,07,06,04,41,14.40
2014,07,06,04,42,14.40
2014,07,06,04,43,14.40
2014,07,06,04,44,14.40
2014,07,06,04,45,14.40
2014,07,06,04,46,14.40
2014,07,06,04,47,14.40
2014,07,06,04,48,14.40
2014,07,06,04,49,14.40
2014,07,06,04,50,14.40
2014,07,06,04,51,14.40
2014,07,06,04,52,14.40
2014,07,06,04,53,14.40
2014,07,06,04,54,14.40
2014,07,06,04,55,14.40
2014,07,06,04,56,14.40
2014,07,06,04,57,14.40
2014,07,06,04,58,14.40
2014,07,06,04,59,14.40
2014,07,06,05,00,14.40
2014,07,06,05,01,14.40
2014,07,06,05,02,14.40
2014,07,06,05,03,14.40
2014,07,06,05,04,14.40
2014,07,06,05,05,14.30
2014,07,06,05,06,14.30
2014,07,06,05,07,14.30
2014,07,06,05,08,14.20
2014,07,06,05,09,14.20
2014,07,06,05,10,14.20
2014,07,06,05,11,14.10
2014,07,06,05,12,14.10
2014,07,06,05,13,14.00
2014,07,06,05,14,13.90
2014,07,06,05,15,13.80
2014,07,06,05,16,13.80
2014,07,06,05,17,13.70
2014,07,06,05,18,13.70
2014,07,06,05,19,13.70
2014,07,06,05,20,13.60
2014,07,06,05,21,13.60
2014,07,06,05,22,13.60
2014,07,06,05,23,13.50
2014,07,06,05,24,13.50
2014,07,06,05,25,13.50
2014,07,06,05,26,13.50
2014,07,06,05,27,13.50
2014,07,06,05,28,13.50
2014,07,06,05,29,13.40
2014,07,06,05,30,13.40
2014,07,06,05,31,13.40
2014,07,06,05,32,13.40
2014,07,06,05,33,13.40
2014,07,06,05,34,13.40
2014,07,06,05,35,13.40
2014,07,06,05,36,13.40
2014,07,06,05,37,13.40
2014,07,06,05,38,13.50
2014,07,06,05,39,13.50
2014,07,06,05,40,13.50
2014,07,06,05,41,13.50
2014,07,06,05,42,13.50
2014,07,06,05,43,13.50
2014,07,06,05,44,13.50
2014,07,06,05,45,13.50
2014,07,06,05,46,13.50
2014,07,06,05,47,13.50
2014,07,06,05,48,13.50
2014,07,06,05,49,13.50
2014,07,06,05,50,13.50
2014,07,06,05,51,13.50
2014,07,06,05,52,13.50
2014,07,06,05,53,13.60
2014,07,06,05,54,13.60
2014,07,06,05,55,13.60
2014,07,06,05,56,13.60
2014,07,06,05,57,13.60
2014,07,06,05,58,13.60
2014,07,06,05,59,13.60
2014,07,06,06,00,13.60
2014,07,06,06,01,13.60
2014,07,06,06,02,13.70
2014,07,06,06,03,13.70
2014,07,06,06,04,13.70
2014,07,06,06,05,13.70
2014,07,06,06,06,13.70
2014,07,06,06,07,13.70
2014,07,06,06,08,13.70
2014,07,06,06,09,13.70
2014,07,06,06,10,13.70
2014,07,06,06,11,13.70
2014,07,06,06,12,13.70
2014,07,06,06,13,13.70
2014,07,06,06,14,13.70
2014,07,06,06,15,13.70
2014,07,06,06,16,13.70
2014,07,06,06,17,13.70
2014,07,06,06,18,13.70
2014,07,06,06,19,13.70
2014,07,06,06,20,13.80
2014,07,06,06,21,13.70
2014,07,06,06,22,13.80
2014,07,06,06,23,13.80
2014,07,06,06,24,13.80
2014,07,06,06,25,13.80
2014,07,06,06,26,13.80
2014,07,06,06,27,13.80
2014,07,06,06,28,13.80
2014,07,06,06,29,13.80
2014,07,06,06,30,13.80
2014,07,06,06,31,13.80
2014,07,06,06,32,13.80
2014,07,06,06,33,13.80
2014,07,06,06,34,13.80
2014,07,06,06,35,13.90
2014,07,06,06,36,13.90
2014,07,06,06,37,13.90
2014,07,06,06,38,13.90
2014,07,06,06,39,13.90
2014,07,06,06,40,13.90
2014,07,06,06,41,13.90
2014,07,06,06,42,13.90
2014,07,06,06,43,13.90
2014,07,06,06,44,13.80
2014,07,06,06,45,13.80
2014,07,06,06,46,13.80
2014,07,06,06,47,13.80
2014,07,06,06,48,13.80
2014,07,06,06,49,13.80
2014,07,06,06,50,13.80
2014,07,06,06,51,13.80
2014,07,06,06,52,13.80
2014,07,06,06,53,13.80
2014,07,06,06,54,13.80
2014,07,06,06,55,13.80
2014,07,06,06,56,13.80
2014,07,06,06,57,13.80
2014,07,06,06,58,13.80
2014,07,06,06,59,13.80
2014,07,06,07,00,13.90
2014,07,06,07,01,13.90
2014,07,06,07,02,13.90
2014,07,06,07,03,13.90
2014,07,06,07,04,13.90
2014,07,06,07,05,13.90
2014,07,06,07,06,13.90
2014,07,06,07,07,13.90
2014,07,06,07,08,13.90
2014,07,06,07,09,14.00
2014,07,06,07,10,14.00
2014,07,06,07,11,14.00
2014,07,06,07,12,14.00
2014,07,06,07,13,14.00
2014,07,06,07,14,14.00
2014,07,06,07,15,14.00
2014,07,06,07,16,14.10
2014,07,06,07,17,14.10
2014,07,06,07,18,14.10
2014,07,06,07,19,14.10
2014,07,06,07,20,14.10
2014,07,06,07,21,14.10
2014,07,06,07,22,14.10
2014,07,06,07,23,14.10
2014,07,06,07,24,14.10
2014,07,06,07,25,14.10
2014,07,06,07,26,14.10
2014,07,06,07,27,14.10
2014,07,06,07,28,14.10
2014,07,06,07,29,14.10
2014,07,06,07,30,14.10
2014,07,06,07,31,14.10
2014,07,06,07,32,14.10
2014,07,06,07,33,14.10
2014,07,06,07,34,14.10
2014,07,06,07,35,14.10
2014,07,06,07,36,14.10
2014,07,06,07,37,14.10
2014,07,06,07,38,14.10
2014,07,06,07,39,14.10
2014,07,06,07,40,14.10
2014,07,06,07,41,14.10
2014,07,06,07,42,14.10
2014,07,06,07,43,14.10
2014,07,06,07,44,14.10
2014,07,06,07,45,14.10
2014,07,06,07,46,14.10
2014,07,06,07,47,14.10
2014,07,06,07,48,14.10
2014,07,06,07,49,14.10
2014,07,06,07,50,14.10
2014,07,06,07,51,14.10
2014,07,06,07,52,14.10
2014,07,06,07,53,14.10
2014,07,06,07,54,14.20
2014,07,06,07,55,14.20
2014,07,06,07,56,14.20
2014,07,06,07,57,14.20
2014,07,06,07,58,14.20
2014,07,06,07,59,14.20
2014,07,06,08,00,14.20
2014,07,06,08,01,14.20
2014,07,06,08,02,14.20
2014,07,06,08,03,14.20
2014,07,06,08,04,14.20
2014,07,06,08,05,14.20
2014,07,06,08,06,14.30
2014,07,06,08,07,14.30
2014,07,06,08,08,14.30
2014,07,06,08,09,14.30
2014,07,06,08,10,14.30
2014,07,06,08,11,14.30
2014,07,06,08,12,14.30
2014,07,06,08,13,14.30
2014,07,06,08,14,14.30
2014,07,06,08,15,14.30
2014,07,06,08,16,14.30
2014,07,06,08,17,14.30
2014,07,06,08,18,14.30
2014,07,06,08,19,14.30
2014,07,06,08,20,14.30
2014,07,06,08,21,14.40
2014,07,06,08,22,14.40
2014,07,06,08,23,14.40
2014,07,06,08,24,14.40
2014,07,06,08,25,14.40
2014,07,06,08,26,14.40
2014,07,06,08,27,14.40
2014,07,06,08,28,14.40
2014,07,06,08,29,14.40
2014,07,06,08,30,14.40
2014,07,06,08,31,14.40
2014,07,06,08,32,14.40
2014,07,06,08,33,14.50
2014,07,06,08,34,14.50
2014,07,06,08,35,14.50
2014,07,06,08,36,14.50
2014,07,06,08,37,14.50
2014,07,06,08,38,14.60
2014,07,06,08,39,14.60
2014,07,06,08,40,14.60
2014,07,06,08,41,14.60
2014,07,06,08,42,14.60
2014,07,06,08,43,14.60
2014,07,06,08,44,14.60
2014,07,06,08,45,14.60
2014,07,06,08,46,14.60
2014,07,06,08,47,14.60
2014,07,06,08,48,14.60
2014,07,06,08,49,14.60
2014,07,06,08,50,14.60
2014,07,06,08,51,14.60
2014,07,06,08,52,14.70
2014,07,06,08,53,14.70
2014,07,06,08,54,14.70
2014,07,06,08,55,14.70
2014,07,06,08,56,14.70
2014,07,06,08,57,14.70
2014,07,06,08,58,14.70
2014,07,06,08,59,14.70
2014,07,06,09,00,14.80
2014,07,06,09,01,14.80
2014,07,06,09,02,14.80
2014,07,06,09,03,14.70
2014,07,06,09,04,14.70
2014,07,06,09,05,14.70
2014,07,06,09,06,14.70
2014,07,06,09,07,14.70
2014,07,06,09,08,14.70
2014,07,06,09,09,14.80
2014,07,06,09,10,14.80
2014,07,06,09,11,14.80
2014,07,06,09,12,14.80
2014,07,06,09,13,14.80
2014,07,06,09,14,14.80
2014,07,06,09,15,14.90
2014,07,06,09,16,14.90
2014,07,06,09,17,14.90
2014,07,06,09,18,14.80
2014,07,06,09,19,14.80
2014,07,06,09,20,14.80
2014,07,06,09,21,14.80
2014,07,06,09,22,14.80
2014,07,06,09,23,14.80
2014,07,06,09,24,14.80
2014,07,06,09,25,14.70
2014,07,06,09,26,14.80
2014,07,06,09,27,14.80
2014,07,06,09,28,14.80
2014,07,06,09,29,14.80
2014,07,06,09,30,14.80
2014,07,06,09,31,14.80
2014,07,06,09,32,14.80
2014,07,06,09,33,14.80
2014,07,06,09,34,14.80
2014,07,06,09,35,14.80
2014,07,06,09,36,14.80
2014,07,06,09,37,14.80
2014,07,06,09,38,14.80
2014,07,06,09,39,14.80
2014,07,06,09,40,14.80
2014,07,06,09,41,14.80
2014,07,06,09,42,14.80
2014,07,06,09,43,14.80
2014,07,06,09,44,14.80
2014,07,06,09,45,14.80
2014,07,06,09,46,14.80
2014,07,06,09,47,14.80
2014,07,06,09,48,14.80
2014,07,06,09,49,14.80
2014,07,06,09,50,14.80
2014,07,06,09,51,14.80
2014,07,06,09,52,14.80
2014,07,06,09,53,14.80
2014,07,06,09,54,14.80
2014,07,06,09,55,14.80
2014,07,06,09,56,14.90
2014,07,06,09,57,14.90
2014,07,06,09,58,14.90
2014,07,06,09,59,14.90
2014,07,06,10,00,14.90
2014,07,06,10,01,14.90
2014,07,06,10,02,14.90
2014,07,06,10,03,14.90
2014,07,06,10,04,14.90
2014,07,06,10,05,14.90
2014,07,06,10,06,14.90
2014,07,06,10,07,14.90
2014,07,06,10,08,14.90
2014,07,06,10,09,15.00
2014,07,06,10,10,15.00
2014,07,06,10,11,14.90
2014,07,06,10,12,15.00
2014,07,06,10,13,15.00
2014,07,06,10,14,15.00
2014,07,06,10,15,15.00
2014,07,06,10,16,15.00
2014,07,06,10,17,15.00
2014,07,06,10,18,15.00
2014,07,06,10,19,15.00
2014,07,06,10,20,15.00
2014,07,06,10,21,15.00
2014,07,06,10,22,15.00
2014,07,06,10,23,15.00
2014,07,06,10,24,15.00
2014,07,06,10,25,15.00
2014,07,06,10,26,15.00
2014,07,06,10,27,15.00
2014,07,06,10,28,15.00
2014,07,06,10,29,15.00
2014,07,06,10,30,15.00
2014,07,06,10,31,15.00
2014,07,06,10,32,15.10
2014,07,06,10,33,15.10
2014,07,06,10,34,15.10
2014,07,06,10,35,15.10
2014,07,06,10,36,15.20
2014,07,06,10,37,15.20
2014,07,06,10,38,15.20
2014,07,06,10,39,15.20
2014,07,06,10,40,15.20
2014,07,06,10,41,15.20
2014,07,06,10,42,15.20
2014,07,06,10,43,15.20
2014,07,06,10,44,15.20
2014,07,06,10,45,15.30
2014,07,06,10,46,15.30
2014,07,06,10,47,15.30
2014,07,06,10,48,15.30
2014,07,06,10,49,15.30
2014,07,06,10,50,15.30
2014,07,06,10,51,15.40
2014,07,06,10,52,15.40
2014,07,06,10,53,15.40
2014,07,06,10,54,15.40
2014,07,06,10,55,15.40
2014,07,06,10,56,15.40
2014,07,06,10,57,15.40
2014,07,06,10,58,15.50
2014,07,06,10,59,15.50
2014,07,06,11,00,15.50
2014,07,06,11,01,15.50
2014,07,06,11,02,15.50
2014,07,06,11,03,15.50
2014,07,06,11,04,15.50
2014,07,06,11,05,15.50
2014,07,06,11,06,15.50
2014,07,06,11,07,15.50
2014,07,06,11,08,15.50
2014,07,06,11,09,15.40
2014,07,06,11,10,15.40
2014,07,06,11,11,15.40
2014,07,06,11,12,15.40
2014,07,06,11,13,15.40
2014,07,06,11,14,15.40
2014,07,06,11,15,15.50
2014,07,06,11,16,15.50
2014,07,06,11,17,15.50
2014,07,06,11,18,15.50
2014,07,06,11,19,15.50
2014,07,06,11,20,15.50
2014,07,06,11,21,15.50
2014,07,06,11,22,15.50
2014,07,06,11,23,15.60
2014,07,06,11,24,15.60
2014,07,06,11,25,15.60
2014,07,06,11,26,15.60
2014,07,06,11,27,15.60
2014,07,06,11,28,15.60
2014,07,06,11,29,15.60
2014,07,06,11,30,15.60
2014,07,06,11,31,15.60
2014,07,06,11,32,15.60
2014,07,06,11,33,15.60
2014,07,06,11,34,15.70
2014,07,06,11,35,15.60
2014,07,06,11,36,15.60
2014,07,06,11,37,15.50
2014,07,06,11,38,15.50
2014,07,06,11,39,15.50
2014,07,06,11,40,15.50
2014,07,06,11,41,15.50
2014,07,06,11,42,15.40
2014,07,06,11,43,15.30
2014,07,06,11,44,15.30
2014,07,06,11,45,15.30
2014,07,06,11,46,15.20
2014,07,06,11,47,15.20
2014,07,06,11,48,15.20
2014,07,06,11,49,15.20
2014,07,06,11,50,15.20
2014,07,06,11,51,15.30
2014,07,06,11,52,15.30
2014,07,06,11,53,15.30
2014,07,06,11,54,15.30
2014,07,06,11,55,15.40
2014,07,06,11,56,15.40
2014,07,06,11,57,15.50
2014,07,06,11,58,15.40
2014,07,06,11,59,15.40
2014,07,06,12,00,15.40
2014,07,06,12,01,15.40
2014,07,06,12,02,15.40
2014,07,06,12,03,15.50
2014,07,06,12,04,15.50
2014,07,06,12,05,15.60
2014,07,06,12,06,15.60
2014,07,06,12,07,15.60
2014,07,06,12,08,15.70
2014,07,06,12,09,15.70
2014,07,06,12,10,15.70
2014,07,06,12,11,15.80
2014,07,06,12,12,15.80
2014,07,06,12,13,15.80
2014,07,06,12,14,15.80
2014,07,06,12,15,15.80
2014,07,06,12,16,15.90
2014,07,06,12,17,15.90
2014,07,06,12,18,15.90
2014,07,06,12,19,16.00
2014,07,06,12,20,16.00
2014,07,06,12,21,16.10
2014,07,06,12,22,16.10
2014,07,06,12,23,16.10
2014,07,06,12,24,16.20
2014,07,06,12,25,16.20
2014,07,06,12,26,16.20
2014,07,06,12,27,16.20
2014,07,06,12,28,16.20
2014,07,06,12,29,16.20
2014,07,06,12,30,16.30
2014,07,06,12,31,16.30
2014,07,06,12,32,16.30
2014,07,06,12,33,16.30
2014,07,06,12,34,16.30
2014,07,06,12,35,16.30
2014,07,06,12,36,16.30
2014,07,06,12,37,16.30
2014,07,06,12,38,16.30
2014,07,06,12,39,16.30
2014,07,06,12,40,16.30
2014,07,06,12,41,16.30
2014,07,06,12,42,16.30
2014,07,06,12,43,16.40
2014,07,06,12,44,16.40
2014,07,06,12,45,16.40
2014,07,06,12,46,16.40
2014,07,06,12,47,16.40
2014,07,06,12,48,16.40
2014,07,06,12,49,16.40
2014,07,06,12,50,16.40
2014,07,06,12,51,16.40
2014,07,06,12,52,16.40
2014,07,06,12,53,16.40
2014,07,06,12,54,16.40
2014,07,06,12,55,16.40
2014,07,06,12,56,16.50
2014,07,06,12,57,16.50
2014,07,06,12,58,16.60
2014,07,06,12,59,16.60
2014,07,06,13,00,16.60
2014,07,06,13,01,16.60
2014,07,06,13,02,16.60
2014,07,06,13,03,16.60
2014,07,06,13,04,16.60
2014,07,06,13,05,16.70
2014,07,06,13,06,16.70
2014,07,06,13,07,16.70
2014,07,06,13,08,16.70
2014,07,06,13,09,16.70
2014,07,06,13,10,16.70
2014,07,06,13,11,16.70
2014,07,06,13,12,16.70
2014,07,06,13,13,16.70
2014,07,06,13,14,16.70
2014,07,06,13,15,16.70
2014,07,06,13,16,16.70
2014,07,06,13,17,16.70
2014,07,06,13,18,16.70
2014,07,06,13,19,16.70
2014,07,06,13,20,16.70
2014,07,06,13,21,16.80
2014,07,06,13,22,16.80
2014,07,06,13,23,16.70
2014,07,06,13,24,16.80
2014,07,06,13,25,16.80
2014,07,06,13,26,16.80
2014,07,06,13,27,16.80
2014,07,06,13,28,16.80
2014,07,06,13,29,16.70
2014,07,06,13,30,16.70
2014,07,06,13,31,16.70
2014,07,06,13,32,16.80
2014,07,06,13,33,16.80
2014,07,06,13,34,16.80
2014,07,06,13,35,16.80
2014,07,06,13,36,16.80
2014,07,06,13,37,16.70
2014,07,06,13,38,16.70
2014,07,06,13,39,16.70
2014,07,06,13,40,16.80
2014,07,06,13,41,16.80
2014,07,06,13,42,16.80
2014,07,06,13,43,16.70
2014,07,06,13,44,16.70
2014,07,06,13,45,16.70
2014,07,06,13,46,16.70
2014,07,06,13,47,16.70
2014,07,06,13,48,16.70
2014,07,06,13,49,16.70
2014,07,06,13,50,16.80
2014,07,06,13,51,16.80
2014,07,06,13,52,16.80
2014,07,06,13,53,16.80
2014,07,06,13,54,16.80
2014,07,06,13,55,16.80
2014,07,06,13,56,16.80
2014,07,06,13,57,16.80
2014,07,06,13,58,16.90
2014,07,06,13,59,16.90
2014,07,06,14,00,17.00
2014,07,06,14,01,17.00
2014,07,06,14,02,17.00
2014,07,06,14,03,17.00
2014,07,06,14,04,17.00
2014,07,06,14,05,17.00
2014,07,06,14,06,17.00
2014,07,06,14,07,17.00
2014,07,06,14,08,17.00
2014,07,06,14,09,17.00
2014,07,06,14,10,17.10
2014,07,06,14,11,17.00
2014,07,06,14,12,17.00
2014,07,06,14,13,17.00
2014,07,06,14,14,17.00
2014,07,06,14,15,16.90
2014,07,06,14,16,16.90
2014,07,06,14,17,16.80
2014,07,06,14,18,16.80
2014,07,06,14,19,16.80
2014,07,06,14,20,16.80
2014,07,06,14,21,16.90
2014,07,06,14,22,16.90
2014,07,06,14,23,17.00
2014,07,06,14,24,17.00
2014,07,06,14,25,17.00
2014,07,06,14,26,16.90
2014,07,06,14,27,16.90
2014,07,06,14,28,16.90
2014,07,06,14,29,16.90
2014,07,06,14,30,17.00
2014,07,06,14,31,16.90
2014,07,06,14,32,16.90
2014,07,06,14,33,16.90
2014,07,06,14,34,16.90
2014,07,06,14,35,16.90
2014,07,06,14,36,16.90
2014,07,06,14,37,16.90
2014,07,06,14,38,16.90
2014,07,06,14,39,16.90
2014,07,06,14,40,17.00
2014,07,06,14,41,17.00
2014,07,06,14,42,17.10
2014,07,06,14,43,17.10
2014,07,06,14,44,17.20
2014,07,06,14,45,17.20
2014,07,06,14,46,17.20
2014,07,06,14,47,17.20
2014,07,06,14,48,17.30
2014,07,06,14,49,17.30
2014,07,06,14,50,17.30
2014,07,06,14,51,17.30
2014,07,06,14,52,17.30
2014,07,06,14,53,17.30
2014,07,06,14,54,17.30
2014,07,06,14,55,17.30
2014,07,06,14,56,17.40
2014,07,06,14,57,17.30
2014,07,06,14,58,17.30
2014,07,06,14,59,17.20
2014,07,06,15,00,17.20
2014,07,06,15,01,17.10
2014,07,06,15,02,17.10
2014,07,06,15,03,17.00
2014,07,06,15,04,16.90
2014,07,06,15,05,16.90
2014,07,06,15,06,16.90
2014,07,06,15,07,16.90
2014,07,06,15,08,16.80
2014,07,06,15,09,16.90
2014,07,06,15,10,16.90
2014,07,06,15,11,16.90
2014,07,06,15,12,16.90
2014,07,06,15,13,16.80
2014,07,06,15,14,16.80
2014,07,06,15,15,16.80
2014,07,06,15,16,16.70
2014,07,06,15,17,16.70
2014,07,06,15,18,16.60
2014,07,06,15,19,16.60
2014,07,06,15,20,16.60
2014,07,06,15,21,16.60
2014,07,06,15,22,16.50
2014,07,06,15,23,16.50
2014,07,06,15,24,16.50
2014,07,06,15,25,16.60
2014,07,06,15,26,16.60
2014,07,06,15,27,16.60
2014,07,06,15,28,16.50
2014,07,06,15,29,16.40
2014,07,06,15,30,16.40
2014,07,06,15,31,16.30
2014,07,06,15,32,16.30
2014,07,06,15,33,16.20
2014,07,06,15,34,16.20
2014,07,06,15,35,16.10
2014,07,06,15,36,16.10
2014,07,06,15,37,16.00
2014,07,06,15,38,16.00
2014,07,06,15,39,16.00
2014,07,06,15,40,16.00
2014,07,06,15,41,16.00
2014,07,06,15,42,16.00
2014,07,06,15,43,16.00
2014,07,06,15,44,16.00
2014,07,06,15,45,16.10
2014,07,06,15,46,16.10
2014,07,06,15,47,16.10
2014,07,06,15,48,16.20
2014,07,06,15,49,16.20
2014,07,06,15,50,16.30
2014,07,06,15,51,16.30
2014,07,06,15,52,16.40
2014,07,06,15,53,16.50
2014,07,06,15,54,16.60
2014,07,06,15,55,16.70
2014,07,06,15,56,16.80
2014,07,06,15,57,16.90
2014,07,06,15,58,16.90
2014,07,06,15,59,17.00
2014,07,06,16,00,17.10
2014,07,06,16,01,17.10
2014,07,06,16,02,17.10
2014,07,06,16,03,17.10
2014,07,06,16,04,17.00
2014,07,06,16,05,16.90
2014,07,06,16,06,16.80
2014,07,06,16,07,16.70
2014,07,06,16,08,16.70
2014,07,06,16,09,16.60
2014,07,06,16,10,16.60
2014,07,06,16,11,16.50
2014,07,06,16,12,16.60
2014,07,06,16,13,16.60
2014,07,06,16,14,16.60
2014,07,06,16,15,16.60
2014,07,06,16,16,16.70
2014,07,06,16,17,16.80
2014,07,06,16,18,16.80
2014,07,06,16,19,16.80
2014,07,06,16,20,16.80
2014,07,06,16,21,16.80
2014,07,06,16,22,16.80
2014,07,06,16,23,16.80
2014,07,06,16,24,16.90
2014,07,06,16,25,16.90
2014,07,06,16,26,17.00
2014,07,06,16,27,17.00
2014,07,06,16,28,17.10
2014,07,06,16,29,17.10
2014,07,06,16,30,17.10
2014,07,06,16,31,17.10
2014,07,06,16,32,17.10
2014,07,06,16,33,17.10
2014,07,06,16,34,17.10
2014,07,06,16,35,17.10
2014,07,06,16,36,17.10
2014,07,06,16,37,17.10
2014,07,06,16,38,17.20
2014,07,06,16,39,17.20
2014,07,06,16,40,17.20
2014,07,06,16,41,17.10
2014,07,06,16,42,17.10
2014,07,06,16,43,17.20
2014,07,06,16,44,17.20
2014,07,06,16,45,17.30
2014,07,06,16,46,17.30
2014,07,06,16,47,17.40
2014,07,06,16,48,17.40
2014,07,06,16,49,17.50
2014,07,06,16,50,17.50
2014,07,06,16,51,17.50
2014,07,06,16,52,17.50
2014,07,06,16,53,17.60
2014,07,06,16,54,17.60
2014,07,06,16,55,17.60
2014,07,06,16,56,17.60
2014,07,06,16,57,17.70
2014,07,06,16,58,17.70
2014,07,06,16,59,17.80
2014,07,06,17,00,17.90
2014,07,06,17,01,17.90
2014,07,06,17,02,18.00
2014,07,06,17,03,17.90
2014,07,06,17,04,17.80
2014,07,06,17,05,17.80
2014,07,06,17,06,17.70
2014,07,06,17,07,17.60
2014,07,06,17,08,17.60
2014,07,06,17,09,17.60
2014,07,06,17,10,17.50
2014,07,06,17,11,17.60
2014,07,06,17,12,17.60
2014,07,06,17,13,17.60
2014,07,06,17,14,17.60
2014,07,06,17,15,17.60
2014,07,06,17,16,17.60
2014,07,06,17,17,17.60
2014,07,06,17,18,17.50
2014,07,06,17,19,17.40
2014,07,06,17,20,17.40
2014,07,06,17,21,17.40
2014,07,06,17,22,17.40